TimeMST,TemperatureF,Dew PointF,Humidity,Sea Level PressureIn,VisibilityMPH,Wind Direction,Wind SpeedMPH,Gust SpeedMPH,PrecipitationIn,Events,Conditions,WindDirDegrees,DateUTC
12:15 AM,41.0,15.8,36,30.06,10.0,NNE,5.8,-,N/A,,Clear,20,2013-01-03 07:15:00
12:35 AM,39.2,15.8,39,30.05,10.0,NNE,4.6,-,N/A,,Clear,20,2013-01-03 07:35:00
12:55 AM,39.2,14.0,36,30.05,10.0,North,4.6,-,N/A,,Clear,360,2013-01-03 07:55:00
1:15 AM,35.6,14.0,41,30.04,10.0,NNW,3.5,-,N/A,,Clear,330,2013-01-03 08:15:00
1:35 AM,37.4,14.0,38,30.04,10.0,NNW,3.5,-,N/A,,Clear,330,2013-01-03 08:35:00
1:55 AM,39.2,14.0,36,30.05,10.0,North,4.6,-,N/A,,Clear,10,2013-01-03 08:55:00
2:15 AM,39.2,14.0,36,30.06,10.0,North,6.9,-,N/A,,Clear,360,2013-01-03 09:15:00
2:35 AM,39.2,14.0,36,30.06,10.0,North,8.1,-,N/A,,Clear,350,2013-01-03 09:35:00
2:55 AM,41.0,12.2,31,30.06,10.0,North,8.1,-,N/A,,Clear,350,2013-01-03 09:55:00
3:15 AM,39.2,12.2,33,30.06,10.0,North,6.9,-,N/A,,Clear,350,2013-01-03 10:15:00
3:35 AM,39.2,12.2,33,30.05,10.0,NNW,6.9,-,N/A,,Clear,340,2013-01-03 10:35:00
3:55 AM,37.4,14.0,38,30.05,10.0,NNW,6.9,-,N/A,,Clear,330,2013-01-03 10:55:00
4:15 AM,37.4,14.0,38,30.05,10.0,NW,8.1,-,N/A,,Clear,320,2013-01-03 11:15:00
4:35 AM,37.4,14.0,38,30.05,10.0,Calm,Calm,-,N/A,,Clear,0,2013-01-03 11:35:00
4:55 AM,35.6,14.0,41,30.05,10.0,Calm,Calm,-,N/A,,Clear,0,2013-01-03 11:55:00
5:15 AM,32.0,14.0,48,30.05,10.0,WNW,3.5,-,N/A,,Clear,290,2013-01-03 12:15:00
5:35 AM,32.0,15.8,51,30.06,10.0,West,4.6,-,N/A,,Clear,280,2013-01-03 12:35:00
5:55 AM,33.8,14.0,44,30.07,10.0,NW,4.6,-,N/A,,Clear,310,2013-01-03 12:55:00
6:15 AM,33.8,14.0,44,30.08,10.0,NW,4.6,-,N/A,,Clear,320,2013-01-03 13:15:00
6:35 AM,33.8,14.0,44,30.08,10.0,NNW,8.1,-,N/A,,Clear,340,2013-01-03 13:35:00
6:55 AM,35.6,14.0,41,30.08,10.0,NNW,8.1,-,N/A,,Clear,340,2013-01-03 13:55:00
7:15 AM,37.4,10.4,33,30.09,10.0,North,9.2,-,N/A,,Clear,350,2013-01-03 14:15:00
7:35 AM,37.4,10.4,33,30.10,10.0,NNW,8.1,-,N/A,,Clear,340,2013-01-03 14:35:00
7:55 AM,39.2,10.4,31,30.10,10.0,North,4.6,-,N/A,,Clear,350,2013-01-03 14:55:00
8:15 AM,39.2,10.4,31,30.11,10.0,NNW,8.1,-,N/A,,Clear,340,2013-01-03 15:15:00
8:35 AM,41.0,12.2,31,30.12,10.0,NW,5.8,-,N/A,,Clear,320,2013-01-03 15:35:00
8:55 AM,41.0,12.2,31,30.13,10.0,West,3.5,-,N/A,,Clear,260,2013-01-03 15:55:00
9:15 AM,44.6,14.0,29,30.13,10.0,West,4.6,-,N/A,,Clear,260,2013-01-03 16:15:00
9:35 AM,48.2,12.2,24,30.14,10.0,ENE,10.4,-,N/A,,Clear,70,2013-01-03 16:35:00
9:55 AM,55.4,10.4,17,30.14,10.0,NE,13.8,21.9,N/A,,Clear,50,2013-01-03 16:55:00
10:15 AM,55.4,10.4,17,30.15,10.0,ENE,15.0,20.7,N/A,,Clear,60,2013-01-03 17:15:00
10:35 AM,55.4,10.4,17,30.16,10.0,ENE,15.0,-,N/A,,Clear,60,2013-01-03 17:35:00
10:55 AM,57.2,8.6,14,30.15,10.0,NE,15.0,-,N/A,,Clear,50,2013-01-03 17:55:00
11:15 AM,57.2,8.6,14,30.15,10.0,ENE,17.3,-,N/A,,Clear,60,2013-01-03 18:15:00
11:35 AM,57.2,8.6,14,30.14,10.0,ENE,15.0,21.9,N/A,,Clear,60,2013-01-03 18:35:00
11:55 AM,59.0,8.6,14,30.14,10.0,ENE,16.1,20.7,N/A,,Clear,60,2013-01-03 18:55:00
12:15 PM,59.0,8.6,14,30.13,10.0,ENE,15.0,21.9,N/A,,Clear,60,2013-01-03 19:15:00
12:35 PM,59.0,8.6,14,30.12,10.0,NE,13.8,21.9,N/A,,Clear,50,2013-01-03 19:35:00
12:55 PM,59.0,8.6,14,30.11,10.0,ENE,16.1,-,N/A,,Clear,60,2013-01-03 19:55:00
1:15 PM,59.0,8.6,14,30.10,10.0,NE,17.3,-,N/A,,Clear,50,2013-01-03 20:15:00
1:35 PM,60.8,8.6,13,30.09,10.0,NE,16.1,21.9,N/A,,Clear,40,2013-01-03 20:35:00
1:55 PM,60.8,6.8,12,30.09,10.0,NE,10.4,19.6,N/A,,Clear,50,2013-01-03 20:55:00
2:15 PM,60.8,6.8,12,30.09,10.0,NE,11.5,19.6,N/A,,Clear,40,2013-01-03 21:15:00
2:35 PM,60.8,8.6,13,30.09,10.0,NE,9.2,-,N/A,,Clear,40,2013-01-03 21:35:00
2:55 PM,60.8,8.6,13,30.09,10.0,NE,8.1,17.3,N/A,,Clear,40,2013-01-03 21:55:00
3:15 PM,62.6,8.6,12,30.10,10.0,NE,6.9,-,N/A,,Clear,50,2013-01-03 22:15:00
3:35 PM,62.6,6.8,11,30.10,10.0,NE,12.7,-,N/A,,Clear,50,2013-01-03 22:35:00
4:15 PM,60.8,8.6,13,30.11,10.0,NE,9.2,-,N/A,,Clear,50,2013-01-03 23:15:00
4:35 PM,60.8,8.6,13,30.11,10.0,NE,8.1,-,N/A,,Clear,50,2013-01-03 23:35:00
4:55 PM,59.0,10.4,15,30.11,10.0,NE,9.2,-,N/A,,Clear,40,2013-01-03 23:55:00
5:15 PM,59.0,8.6,14,30.11,10.0,NE,6.9,-,N/A,,Clear,50,2013-01-04 00:15:00
5:35 PM,57.2,10.4,16,30.12,10.0,NNE,3.5,-,N/A,,Clear,20,2013-01-04 00:35:00
5:55 PM,53.6,8.6,16,30.12,10.0,North,6.9,-,N/A,,Clear,360,2013-01-04 00:55:00
6:15 PM,51.8,6.8,16,30.12,10.0,North,6.9,-,N/A,,Clear,360,2013-01-04 01:15:00
6:35 PM,50.0,8.6,19,30.12,10.0,North,8.1,-,N/A,,Clear,350,2013-01-04 01:35:00
6:55 PM,48.2,6.8,19,30.13,10.0,North,9.2,-,N/A,,Clear,350,2013-01-04 01:55:00
7:15 PM,48.2,6.8,19,30.13,10.0,North,10.4,-,N/A,,Clear,360,2013-01-04 02:15:00
7:35 PM,48.2,6.8,19,30.14,10.0,North,9.2,-,N/A,,Clear,360,2013-01-04 02:35:00
7:55 PM,46.4,6.8,20,30.14,10.0,North,8.1,-,N/A,,Clear,360,2013-01-04 02:55:00
8:15 PM,46.4,8.6,22,30.15,10.0,NW,8.1,-,N/A,,Clear,320,2013-01-04 03:15:00
8:35 PM,48.2,6.8,19,30.15,10.0,North,9.2,-,N/A,,Clear,10,2013-01-04 03:35:00
8:55 PM,48.2,6.8,19,30.16,10.0,NNE,9.2,-,N/A,,Clear,20,2013-01-04 03:55:00
9:15 PM,53.6,6.8,15,30.16,10.0,North,9.2,-,N/A,,Clear,350,2013-01-04 04:15:00
9:35 PM,50.0,6.8,17,30.18,10.0,NNW,9.2,-,N/A,,Clear,340,2013-01-04 04:35:00
9:55 PM,51.8,6.8,16,30.18,10.0,North,6.9,-,N/A,,Clear,350,2013-01-04 04:55:00
10:15 PM,51.8,6.8,16,30.19,10.0,North,6.9,-,N/A,,Clear,360,2013-01-04 05:15:00
10:35 PM,50.0,8.6,19,30.19,10.0,North,9.2,-,N/A,,Clear,10,2013-01-04 05:35:00
10:55 PM,50.0,8.6,19,30.20,10.0,North,9.2,-,N/A,,Clear,10,2013-01-04 05:55:00
11:15 PM,50.0,8.6,19,30.20,10.0,North,10.4,-,N/A,,Clear,10,2013-01-04 06:15:00
11:35 PM,50.0,10.4,20,30.20,10.0,North,11.5,-,N/A,,Clear,10,2013-01-04 06:35:00
11:55 PM,50.0,10.4,20,30.21,10.0,NNE,9.2,17.3,N/A,,Clear,20,2013-01-04 06:55:00